CW2099 Weather Reports


Display with metric or nautical units.
time (UTC)temp
F
wind
direction
speed
MPH
gust
MPH
rain 1hr
in
rain 24hr
in
rain mn
in
humidity
%
barometer
mb
20260507181518 43 71 1.0 7.0 0.00 0.00 0.00 37 1010.5
20260507180019 43 20 1.0 7.0 0.00 0.00 0.00 36 1010.7
20260507174520 43 68 2.0 10.0 0.00 0.00 0.00 35 1010.6
20260507173015 43 161 1.0 4.0 0.00 0.00 0.00 35 1010.6
20260507171516 42 277 2.0 4.0 0.00 0.00 0.00 43 1010.9
20260507170012 40 80 0.0 4.0 0.00 0.00 0.00 47 1011.2
20260507164511 39 113 0.0 4.0 0.00 0.00 0.00 51 1011.6
20260507163010 42 28 2.0 4.0 0.00 0.00 0.00 38 1011.6
20260507161509 42 141 2.0 4.0 0.00 0.00 0.00 38 1011.4
20260507160007 41 48 0.0 9.0 0.00 0.00 0.00 39 1011.7
20260507154502 40 71 1.0 9.0 0.00 0.00 0.00 42 1012.0
20260507153101 40 44 3.0 9.0 0.00 0.00 0.00 44 1011.8
20260507151601 40 31 4.0 7.0 0.00 0.00 0.00 44 1011.9
20260507150058 39 46 3.0 6.0 0.00 0.00 0.00 45 1012.1
20260507144603 39 57 5.0 11.0 0.00 0.00 0.00 45 1012.1
20260507143108 38 95 3.0 6.0 0.00 0.00 0.00 45 1012.1
20260507141608 38 107 0.0 3.0 0.00 0.00 0.00 47 1012.3
20260507140053 38 93 2.0 6.0 0.00 0.00 0.00 47 1012.4
20260507134554 38 96 2.0 5.0 0.00 0.00 0.00 47 1012.6
20260507133050 37 72 1.0 4.0 0.00 0.00 0.00 48 1012.4
20260507131600 36 105 1.0 4.0 0.00 0.00 0.00 49 1012.4
20260507130047 36 73 1.0 5.0 0.00 0.00 0.00 50 1012.4
20260507124545 36 38 0.0 4.0 0.00 0.00 0.00 51 1012.4
20260507123100 35 24 0.0 2.0 0.00 0.00 0.00 51 1012.4
20260507121545 35 23 0.0 4.0 0.00 0.00 0.00 51 1012.5
20260507120044 35 30 0.0 2.0 0.00 0.00 0.00 51 1012.4
20260507114543 34 30 1.0 2.0 0.00 0.00 0.00 51 1012.2
20260507113042 34 30 0.0 3.0 0.00 0.00 0.00 52 1012.2
20260507111542 34 30 0.0 1.0 0.00 0.00 0.00 52 1012.0
20260507110040 34 30 0.0 1.0 0.00 0.00 0.00 51 1012.1
20260507104540 34 30 0.0 1.0 0.00 0.00 0.00 51 1012.1
20260507103039 34 30 0.0 2.0 0.00 0.00 0.00 51 1012.2
20260507101538 34 30 0.0 1.0 0.00 0.00 0.00 51 1012.1
20260507100051 34 30 0.0 1.0 0.00 0.00 0.00 51 1012.1
20260507094537 35 30 0.0 3.0 0.00 0.00 0.00 50 1012.1
20260507093036 35 30 0.0 2.0 0.00 0.00 0.00 50 1012.0
20260507091539 35 30 0.0 2.0 0.00 0.00 0.00 50 1012.2
20260507090033 35 30 0.0 3.0 0.00 0.00 0.00 50 1012.2
20260507084534 35 30 0.0 2.0 0.00 0.00 0.00 50 1012.3
20260507083029 35 30 0.0 1.0 0.00 0.00 0.00 50 1012.3
20260507081530 35 30 0.0 1.0 0.00 0.00 0.00 49 1012.3
20260507080150 35 30 0.0 3.0 0.00 0.00 0.00 49 1012.4
20260507074527 35 30 0.0 0.0 0.00 0.00 0.00 49 1012.3
20260507073030 35 30 0.0 0.0 0.00 0.00 0.00 49 1012.5
20260507071528 35 30 0.0 2.0 0.00 0.00 0.00 49 1012.6
20260507070023 36 30 0.0 1.0 0.00 0.00 0.00 48 1012.8
20260507064531 36 30 0.0 2.0 0.00 0.00 0.00 48 1013.0
20260507063019 36 30 0.0 2.0 0.00 0.00 0.00 48 1013.1
20260507061515 36 30 0.0 2.0 0.00 0.00 0.00 47 1013.2
20260507060014 36 30 0.0 4.0 0.00 0.00 0.00 47 1013.4
20260507054511 36 30 0.0 4.0 0.00 0.00 0.00 47 1013.5
20260507053009 36 82 0.0 0.0 0.00 0.00 0.00 47 1013.6
20260507051507 36 82 0.0 0.0 0.00 0.00 0.00 46 1013.7
20260507050010 36 82 0.0 0.0 0.00 0.00 0.00 46 1013.9
20260507044504 36 82 0.0 0.0 0.00 0.00 0.00 46 1013.9
20260507043004 36 82 0.0 0.0 0.00 0.00 0.00 45 1013.9
20260507041510 36 82 0.0 0.0 0.00 0.00 0.00 45 1013.8
20260507040004 36 82 0.0 0.0 0.00 0.00 0.00 44 1013.9
20260507034504 37 82 0.0 0.0 0.00 0.00 0.00 43 1013.9
20260507033003 37 82 0.0 0.0 0.00 0.00 0.00 43 1013.9
20260507031508 37 82 0.0 0.0 0.00 0.00 0.00 43 1014.1
20260507030008 37 82 0.0 0.0 0.00 0.00 0.00 43 1014.2
20260507024508 37 82 0.0 1.0 0.00 0.00 0.00 42 1014.1
20260507023002 38 82 0.0 3.0 0.00 0.00 0.00 43 1014.1
20260507021501 38 82 1.0 2.0 0.00 0.00 0.00 42 1014.0
20260507020001 38 82 0.0 1.0 0.00 0.00 0.00 41 1014.0
20260507014501 38 82 0.0 2.0 0.00 0.00 0.00 41 1013.9
20260507013000 38 82 0.0 2.0 0.00 0.00 0.00 41 1013.9
20260507011600 38 137 0.0 4.0 0.00 0.00 0.00 40 1013.9
20260507010111 38 138 0.0 3.0 0.00 0.00 0.00 39 1013.8
20260507004558 39 100 1.0 4.0 0.00 0.00 0.00 39 1013.8
20260507003057 39 115 1.0 3.0 0.00 0.00 0.00 38 1013.7
20260507001603 39 98 1.0 4.0 0.00 0.00 0.00 38 1013.6
20260507000057 40 190 1.0 5.0 0.00 0.00 0.00 36 1013.5
20260506234600 40 90 1.0 6.0 0.00 0.00 0.00 36 1013.3
20260506233059 40 13 1.0 4.0 0.00 0.00 0.00 36 1013.3
20260506231609 41 150 0.0 4.0 0.00 0.00 0.00 36 1013.2
20260506230110 41 133 0.0 4.0 0.00 0.00 0.00 36 1013.1
20260506224554 41 181 0.0 3.0 0.00 0.00 0.00 35 1013.0
20260506223053 41 134 1.0 4.0 0.00 0.00 0.00 35 1013.0
20260506221613 41 108 2.0 7.0 0.00 0.00 0.00 35 1012.8
20260506220110 41 120 1.0 6.0 0.00 0.00 0.00 34 1012.7
20260506214553 42 129 2.0 4.0 0.00 0.00 0.00 34 1012.6
20260506213106 42 144 2.0 5.0 0.00 0.00 0.00 33 1012.5
20260506211555 42 192 1.0 4.0 0.00 0.00 0.00 33 1012.5
20260506210057 43 271 1.0 7.0 0.00 0.00 0.00 32 1012.4
20260506204604 43 103 1.0 5.0 0.00 0.00 0.00 32 1012.6
20260506203052 43 178 0.0 7.0 0.00 0.00 0.00 31 1012.8
20260506201551 43 128 2.0 5.0 0.00 0.00 0.00 30 1012.6
20260506200049 43 34 1.0 5.0 0.00 0.00 0.00 31 1012.7
20260506194549 43 138 1.0 9.0 0.00 0.00 0.00 28 1012.7
20260506193048 43 15 2.0 7.0 0.00 0.00 0.00 29 1012.6
20260506191550 43 195 2.0 5.0 0.00 0.00 0.00 28 1012.5
20260506190048 44 134 2.0 7.0 0.00 0.00 0.00 27 1012.5
20260506184558 44 124 3.0 6.0 0.00 0.00 0.00 27 1012.5
20260506183042 43 127 1.0 5.0 0.00 0.00 0.00 28 1012.6